Time,TemperatureF,DewpointF,PressureIn,WindDirection,WindDirectionDegrees,WindSpeedMPH,WindSpeedGustMPH,Humidity,HourlyPrecipIn,Conditions,Clouds,dailyrainin,SolarRadiationWatts/m^2,SoftwareType,DateUTC
2013-05-02 00:02:00,69.0,63.0,-100.00,NE,44,5.0,9.0,80,0.00,,,0.00,0.000000,,2013-05-02 05:02:00,
2013-05-02 00:32:00,68.0,64.0,-100.00,NNE,31,4.0,10.0,86,0.00,,,0.00,0.000000,,2013-05-02 05:32:00,
2013-05-02 00:42:00,68.0,64.0,-100.00,NNE,31,4.0,10.0,86,0.00,,,0.00,0.000000,,2013-05-02 05:42:00,
2013-05-02 00:52:00,68.0,64.0,-100.00,NNE,31,4.0,10.0,86,0.00,,,0.00,0.000000,,2013-05-02 05:52:00,
2013-05-02 01:01:00,68.0,64.0,-100.00,NNE,31,4.0,10.0,86,0.00,,,0.00,0.000000,,2013-05-02 06:01:00,
2013-05-02 01:32:00,67.0,63.0,-100.00,NE,34,4.0,8.0,88,0.00,,,0.00,0.000000,,2013-05-02 06:32:00,
2013-05-02 01:42:00,67.0,63.0,-100.00,NE,34,4.0,8.0,88,0.00,,,0.00,0.000000,,2013-05-02 06:42:00,
2013-05-02 01:52:00,67.0,63.0,-100.00,NE,34,4.0,8.0,88,0.00,,,0.00,0.000000,,2013-05-02 06:52:00,
2013-05-02 02:02:00,67.0,63.0,-100.00,NE,34,4.0,8.0,88,0.00,,,0.00,0.000000,,2013-05-02 07:02:00,
2013-05-02 02:22:00,65.0,63.0,-100.00,North,354,2.0,4.0,94,0.00,,,0.00,0.000000,,2013-05-02 07:22:00,
2013-05-02 02:32:00,65.0,63.0,-100.00,North,354,2.0,4.0,94,0.00,,,0.00,0.000000,,2013-05-02 07:32:00,
2013-05-02 02:42:00,65.0,63.0,-100.00,North,354,2.0,4.0,94,0.00,,,0.00,0.000000,,2013-05-02 07:42:00,
2013-05-02 02:52:00,65.0,63.0,-100.00,North,354,2.0,4.0,94,0.00,,,0.00,0.000000,,2013-05-02 07:52:00,
2013-05-02 03:02:00,65.0,63.0,-100.00,North,354,2.0,4.0,94,0.00,,,0.00,0.000000,,2013-05-02 08:02:00,
2013-05-02 03:32:00,65.0,64.0,-100.00,North,353,1.0,5.0,96,0.00,,,0.00,0.000000,,2013-05-02 08:32:00,
2013-05-02 03:42:00,65.0,64.0,-100.00,North,353,1.0,5.0,96,0.00,,,0.00,0.000000,,2013-05-02 08:42:00,
2013-05-02 03:52:00,65.0,64.0,-100.00,North,353,1.0,5.0,96,0.00,,,0.00,0.000000,,2013-05-02 08:52:00,
2013-05-02 04:02:00,65.0,64.0,-100.00,North,353,1.0,5.0,96,0.00,,,0.00,0.000000,,2013-05-02 09:02:00,
2013-05-02 04:22:00,65.0,64.0,-100.00,NNE,20,3.0,6.0,96,0.00,,,0.00,0.000000,,2013-05-02 09:22:00,
2013-05-02 04:33:00,65.0,64.0,-100.00,NNE,20,3.0,6.0,96,0.00,,,0.00,0.000000,,2013-05-02 09:33:00,
2013-05-02 04:42:00,65.0,64.0,-100.00,NNE,20,3.0,6.0,96,0.00,,,0.00,0.000000,,2013-05-02 09:42:00,
2013-05-02 04:52:00,65.0,64.0,-100.00,NNE,20,3.0,6.0,96,0.00,,,0.00,0.000000,,2013-05-02 09:52:00,
2013-05-02 05:02:00,65.0,64.0,-100.00,NNE,20,3.0,6.0,96,0.00,,,0.00,0.000000,,2013-05-02 10:02:00,
2013-05-02 05:23:00,65.0,64.0,-100.00,North,0,0.0,6.0,95,0.00,,,0.00,0.000000,,2013-05-02 10:23:00,
2013-05-02 05:33:00,65.0,64.0,-100.00,North,0,0.0,6.0,95,0.00,,,0.00,0.000000,,2013-05-02 10:33:00,
2013-05-02 05:42:00,65.0,64.0,-100.00,North,0,0.0,6.0,95,0.00,,,0.00,0.000000,,2013-05-02 10:42:00,
2013-05-02 05:53:00,65.0,64.0,-100.00,North,0,0.0,6.0,95,0.00,,,0.00,0.000000,,2013-05-02 10:53:00,
2013-05-02 06:02:00,65.0,64.0,-100.00,North,0,0.0,6.0,95,0.00,,,0.00,0.000000,,2013-05-02 11:02:00,
2013-05-02 06:32:00,65.0,64.0,-100.00,NNE,13,3.0,5.0,95,0.00,,,0.00,0.000000,,2013-05-02 11:32:00,
2013-05-02 06:42:00,65.0,64.0,-100.00,NNE,13,3.0,5.0,95,0.00,,,0.00,0.000000,,2013-05-02 11:42:00,
2013-05-02 06:52:00,65.0,64.0,-100.00,NNE,13,3.0,5.0,95,0.00,,,0.00,0.000000,,2013-05-02 11:52:00,
2013-05-02 07:01:00,65.0,64.0,-100.00,NNE,13,3.0,5.0,95,0.00,,,0.00,0.000000,,2013-05-02 12:01:00,
2013-05-02 07:22:00,66.0,64.0,-100.00,North,356,2.0,5.0,92,0.00,,,0.00,2.000000,,2013-05-02 12:22:00,
2013-05-02 07:32:00,66.0,64.0,-100.00,North,356,2.0,5.0,92,0.00,,,0.00,2.000000,,2013-05-02 12:32:00,
2013-05-02 07:42:00,66.0,64.0,-100.00,North,356,2.0,5.0,92,0.00,,,0.00,2.000000,,2013-05-02 12:42:00,
2013-05-02 07:52:00,66.0,64.0,-100.00,North,356,2.0,5.0,92,0.00,,,0.00,2.000000,,2013-05-02 12:52:00,
2013-05-02 08:01:00,66.0,64.0,-100.00,North,356,2.0,5.0,92,0.00,,,0.00,2.000000,,2013-05-02 13:01:00,
2013-05-02 08:32:00,67.0,64.0,-100.00,North,7,4.0,9.0,90,0.00,,,0.00,33.000000,,2013-05-02 13:32:00,
2013-05-02 08:42:00,67.0,64.0,-100.00,North,7,4.0,9.0,90,0.00,,,0.00,33.000000,,2013-05-02 13:42:00,
2013-05-02 08:52:00,67.0,64.0,-100.00,North,7,4.0,9.0,90,0.00,,,0.00,33.000000,,2013-05-02 13:52:00,
2013-05-02 09:02:00,67.0,64.0,-100.00,North,7,4.0,9.0,90,0.00,,,0.00,33.000000,,2013-05-02 14:02:00,
2013-05-02 09:32:00,68.0,64.0,-100.00,North,4,5.0,11.0,87,0.00,,,0.00,94.000000,,2013-05-02 14:32:00,
2013-05-02 09:43:00,68.0,64.0,-100.00,North,4,5.0,11.0,87,0.00,,,0.00,94.000000,,2013-05-02 14:43:00,
2013-05-02 09:52:00,68.0,64.0,-100.00,North,4,5.0,11.0,87,0.00,,,0.00,94.000000,,2013-05-02 14:52:00,
2013-05-02 10:02:00,68.0,64.0,-100.00,North,4,5.0,11.0,87,0.00,,,0.00,94.000000,,2013-05-02 15:02:00,
2013-05-02 10:33:00,69.0,64.0,-100.00,North,354,6.0,14.0,83,0.00,,,0.00,209.000000,,2013-05-02 15:33:00,
2013-05-02 10:43:00,69.0,64.0,-100.00,North,354,6.0,14.0,83,0.00,,,0.00,209.000000,,2013-05-02 15:43:00,
2013-05-02 11:02:00,69.0,64.0,-100.00,North,354,6.0,14.0,83,0.00,,,0.00,209.000000,,2013-05-02 16:02:00,
2013-05-02 11:32:00,72.0,64.0,-100.00,North,357,7.0,13.0,75,0.00,,,0.00,358.000000,,2013-05-02 16:32:00,
2013-05-02 11:43:00,72.0,64.0,-100.00,North,357,7.0,13.0,75,0.00,,,0.00,358.000000,,2013-05-02 16:43:00,
2013-05-02 11:52:00,72.0,64.0,-100.00,North,357,7.0,13.0,75,0.00,,,0.00,358.000000,,2013-05-02 16:52:00,
2013-05-02 12:02:00,72.0,64.0,-100.00,North,357,7.0,13.0,75,0.00,,,0.00,358.000000,,2013-05-02 17:02:00,
2013-05-02 12:32:00,71.0,62.0,-100.00,NE,48,8.0,14.0,72,0.00,,,0.00,351.000000,,2013-05-02 17:32:00,
2013-05-02 12:42:00,71.0,62.0,-100.00,NE,48,8.0,14.0,72,0.00,,,0.00,351.000000,,2013-05-02 17:42:00,
2013-05-02 12:52:00,71.0,62.0,-100.00,NE,48,8.0,14.0,72,0.00,,,0.00,351.000000,,2013-05-02 17:52:00,
2013-05-02 13:01:00,71.0,62.0,-100.00,NE,48,8.0,14.0,72,0.00,,,0.00,351.000000,,2013-05-02 18:01:00,
2013-05-02 13:32:00,72.0,62.0,-100.00,North,350,7.0,15.0,70,0.00,,,0.00,443.000000,,2013-05-02 18:32:00,
2013-05-02 13:42:00,72.0,62.0,-100.00,North,350,7.0,15.0,70,0.00,,,0.00,443.000000,,2013-05-02 18:42:00,
2013-05-02 13:52:00,72.0,62.0,-100.00,North,350,7.0,15.0,70,0.00,,,0.00,443.000000,,2013-05-02 18:52:00,
2013-05-02 14:01:00,72.0,62.0,-100.00,North,350,7.0,15.0,70,0.00,,,0.00,443.000000,,2013-05-02 19:01:00,
2013-05-02 14:22:00,68.0,61.0,-100.00,NNW,329,11.0,22.0,77,0.00,,,0.00,231.000000,,2013-05-02 19:22:00,
2013-05-02 14:32:00,68.0,61.0,-100.00,NNW,329,11.0,22.0,77,0.00,,,0.00,231.000000,,2013-05-02 19:32:00,
2013-05-02 14:42:00,68.0,61.0,-100.00,NNW,329,11.0,22.0,77,0.00,,,0.00,231.000000,,2013-05-02 19:42:00,
2013-05-02 14:52:00,68.0,61.0,-100.00,NNW,329,11.0,22.0,77,0.00,,,0.00,231.000000,,2013-05-02 19:52:00,
2013-05-02 15:02:00,68.0,61.0,-100.00,NNW,329,11.0,22.0,77,0.00,,,0.00,231.000000,,2013-05-02 20:02:00,
2013-05-02 15:32:00,65.0,57.0,-100.00,NW,318,10.0,19.0,75,0.00,,,0.00,229.000000,,2013-05-02 20:32:00,
2013-05-02 15:42:00,65.0,57.0,-100.00,NW,318,10.0,19.0,75,0.00,,,0.00,229.000000,,2013-05-02 20:42:00,
2013-05-02 15:52:00,65.0,57.0,-100.00,NW,318,10.0,19.0,75,0.00,,,0.00,229.000000,,2013-05-02 20:52:00,
2013-05-02 16:01:00,65.0,57.0,-100.00,NW,318,10.0,19.0,75,0.00,,,0.00,229.000000,,2013-05-02 21:01:00,
2013-05-02 16:21:00,63.0,55.0,-100.00,NW,320,11.0,18.0,74,0.00,,,0.00,211.000000,,2013-05-02 21:21:00,
2013-05-02 16:33:00,63.0,55.0,-100.00,NW,320,11.0,18.0,74,0.00,,,0.00,211.000000,,2013-05-02 21:33:00,
2013-05-02 16:42:00,63.0,55.0,-100.00,NW,320,11.0,18.0,74,0.00,,,0.00,211.000000,,2013-05-02 21:42:00,
2013-05-02 16:53:00,63.0,55.0,-100.00,NW,320,11.0,18.0,74,0.00,,,0.00,211.000000,,2013-05-02 21:53:00,
2013-05-02 17:02:00,63.0,55.0,-100.00,NW,320,11.0,18.0,74,0.00,,,0.00,211.000000,,2013-05-02 22:02:00,
2013-05-02 17:33:00,60.0,51.0,-100.00,NW,316,10.0,24.0,73,0.00,,,0.00,87.000000,,2013-05-02 22:33:00,
2013-05-02 17:42:00,60.0,51.0,-100.00,NW,316,10.0,24.0,73,0.00,,,0.00,87.000000,,2013-05-02 22:42:00,
2013-05-02 17:52:00,60.0,51.0,-100.00,NW,316,10.0,24.0,73,0.00,,,0.00,87.000000,,2013-05-02 22:52:00,
2013-05-02 18:02:00,60.0,51.0,-100.00,NW,316,10.0,24.0,73,0.00,,,0.00,87.000000,,2013-05-02 23:02:00,
2013-05-02 18:22:00,57.0,48.0,-100.00,NW,324,14.0,25.0,71,0.00,,,0.00,88.000000,,2013-05-02 23:22:00,
2013-05-02 18:32:00,57.0,48.0,-100.00,NW,324,14.0,25.0,71,0.00,,,0.00,88.000000,,2013-05-02 23:32:00,
2013-05-02 18:42:00,57.0,48.0,-100.00,NW,324,14.0,25.0,71,0.00,,,0.00,88.000000,,2013-05-02 23:42:00,
2013-05-02 18:52:00,57.0,48.0,-100.00,NW,324,14.0,25.0,71,0.00,,,0.00,88.000000,,2013-05-02 23:52:00,
2013-05-02 19:01:00,57.0,48.0,-100.00,NW,324,14.0,25.0,71,0.00,,,0.00,88.000000,,2013-05-03 00:01:00,
2013-05-02 19:22:00,54.0,46.0,-100.00,NW,323,12.0,25.0,75,0.00,,,0.00,35.000000,,2013-05-03 00:22:00,
2013-05-02 19:32:00,54.0,46.0,-100.00,NW,323,12.0,25.0,75,0.00,,,0.00,35.000000,,2013-05-03 00:32:00,
2013-05-02 19:42:00,54.0,46.0,-100.00,NW,323,12.0,25.0,75,0.00,,,0.00,35.000000,,2013-05-03 00:42:00,
2013-05-02 19:52:00,54.0,46.0,-100.00,NW,323,12.0,25.0,75,0.00,,,0.00,35.000000,,2013-05-03 00:52:00,
2013-05-02 20:01:00,54.0,46.0,-100.00,NW,323,12.0,25.0,75,0.00,,,0.00,35.000000,,2013-05-03 01:01:00,
2013-05-02 20:21:00,52.0,45.0,-100.00,NW,321,12.0,24.0,78,0.00,,,0.00,11.000000,,2013-05-03 01:21:00,
2013-05-02 20:32:00,52.0,45.0,-100.00,NW,321,12.0,24.0,78,0.00,,,0.00,11.000000,,2013-05-03 01:32:00,
2013-05-02 20:42:00,52.0,45.0,-100.00,NW,321,12.0,24.0,78,0.00,,,0.00,11.000000,,2013-05-03 01:42:00,
2013-05-02 20:52:00,52.0,45.0,-100.00,NW,321,12.0,24.0,78,0.00,,,0.00,11.000000,,2013-05-03 01:52:00,
2013-05-02 21:01:00,52.0,45.0,-100.00,NW,321,12.0,24.0,78,0.00,,,0.00,11.000000,,2013-05-03 02:01:00,
2013-05-02 21:22:00,50.0,44.0,-100.00,NNW,327,13.0,23.0,79,0.00,,,0.00,0.000000,,2013-05-03 02:22:00,
2013-05-02 21:32:00,50.0,44.0,-100.00,NNW,327,13.0,23.0,79,0.00,,,0.00,0.000000,,2013-05-03 02:32:00,
2013-05-02 21:42:00,50.0,44.0,-100.00,NNW,327,13.0,23.0,79,0.00,,,0.00,0.000000,,2013-05-03 02:42:00,
2013-05-02 21:52:00,50.0,44.0,-100.00,NNW,327,13.0,23.0,79,0.00,,,0.00,0.000000,,2013-05-03 02:52:00,
2013-05-02 22:01:00,50.0,44.0,-100.00,NNW,327,13.0,23.0,79,0.00,,,0.00,0.000000,,2013-05-03 03:01:00,
2013-05-02 22:03:00,49.0,41.0,-100.00,NNW,330,13.0,24.0,75,0.00,,,0.00,0.000000,,2013-05-03 03:03:00,
2013-05-02 22:21:00,49.0,41.0,-100.00,NNW,330,13.0,24.0,75,0.00,,,0.00,0.000000,,2013-05-03 03:21:00,
2013-05-02 22:33:00,49.0,41.0,-100.00,NNW,330,13.0,24.0,75,0.00,,,0.00,0.000000,,2013-05-03 03:33:00,
2013-05-02 22:43:00,49.0,41.0,-100.00,NNW,330,13.0,24.0,75,0.00,,,0.00,0.000000,,2013-05-03 03:43:00,
2013-05-02 22:53:00,49.0,41.0,-100.00,NNW,330,13.0,24.0,75,0.00,,,0.00,0.000000,,2013-05-03 03:53:00,
2013-05-02 23:32:00,48.0,40.0,-100.00,NW,323,14.0,24.0,74,0.00,,,0.00,0.000000,,2013-05-03 04:32:00,
2013-05-02 23:43:00,48.0,40.0,-100.00,NW,323,14.0,24.0,74,0.00,,,0.00,0.000000,,2013-05-03 04:43:00,
2013-05-02 23:53:00,48.0,40.0,-100.00,NW,323,14.0,24.0,74,0.00,,,0.00,0.000000,,2013-05-03 04:53:00,